Location: Barrio de Buenos Aires
(28.4500°N, 16.2667°W)
Time: 04:33:47
(UTC+00:00)

Cosmos 2297 Rocket - Pass Details

Date: 24 January 2020
Orbit: 838 x 845 km, 71.0° (Epoch: 16 February)

Event Time Altitude Azimuth Distance (km) Brightness Sun altitude
Rises 19:15:14 0° 224° (SW) 3,378 6.5 -8.6°
Reaches altitude 10° 19:17:58 10° 235° (SW) 2,447 6.0 -9.2°
Maximum altitude 19:22:49 30° 295° (WNW) 1,472 4.0 -10.2°
Drops below altitude 10° 19:27:43 10° 355° (N) 2,461 4.5 -11.2°
Sets 19:30:29 0° 7° (N) 3,400 5.1 -11.8°
